www.pogodaiklimat.ru

Погода и климат >> Архив погоды >> Россия >> Ненецкий АО >> Амдерма


АРХИВ ПОГОДЫ в Амдерме

Время (UTC), дата Ветер
(напр.,м/с)
 
Видим.   Явления Облачность Т
(С)
Тd
(С)
f
(%)
Тe
(С)
Тes
(С)
Комфортность P
(гПа)
Po
(гПа)
Тmin
(С)
Tmax
(С)
R
(мм)
R24
(мм)
S
(см)
12 12.06 С 5 10 км {ливн. осадки} 9/8 300 м
[Cu Sc Ac trans]
+0.8 +0.2 96 -5 -5 1001.4 995.1
15 12.06 С 6
{11}
10 км слаб. ливневой снег 9/9 300 м
[Cb cap Ac trans]
-0.6 -1.2 96 -8 -7 1002.1 995.8 +2.0 0.1
18 12.06 С 5
{11}
10 км {ливн. осадки} 10/10 300 м
[Sc]
-0.7 -2.3 89 -7 -7 1002.0 995.6
21 12.06 СЗ 4 4000 м слаб. ливневой снег 10/10 300 м
[Cb cap]
-0.6 -0.9 98 -6 -6 1000.5 994.2
00 13.06 С 3 10 км слаб. ливневой снег 10/8 300 м
[Cb cap As trans]
-1.7 -1.8 99 -7 -7 1000.2 993.8
03 13.06 С 5 10 км {ливн. осадки} 10/6 300 м
[Cu med, cong As trans]
-1.4 -1.8 97 -8 -8 1000.6 994.3 -1.7 0.4 <0.5
06 13.06 С 6-10
{10}
10 км {ливн. осадки} 9/6 300 м
[Cu Sc Ac trans]
-0.7 -3.7 80 -7 -7 1001.7 995.4
09 13.06 С 8-11
{11}
10 км 10/10 300 м
[Cu Sc]
-0.6 -2.6 86 -8 -8 1002.9 996.5
12 13.06 С 6-11
{12}
10 км 10/10 300 м
[Cu Sc]
-0.7 -2.9 85 -8 -8 1003.5 997.2
15 13.06 С 8-11
{11}
10 км 9/9 300 м
[Sc]
-1.0 -3.4 84 -9 -9 1003.6 997.2 -0.4
18 13.06 С 8-11
{11}
10 км 6/3 300 м
[Sc Ac trans Ci fib]
-1.6 -3.2 89 -10 -10 1003.7 997.3
21 13.06 С 7
{12}
10 км 10/10 600 м
[Sc]
-1.7 -3.3 89 -9 -9 1003.8 997.4
00 14.06 С 5
{12}
10 км {ливн. осадки} 9/6 300 м
[Cu med, cong Ac trans]
-1.2 -1.9 95 -8 -8 1003.5 997.1
03 14.06 С 5
{11}
10 км 9/8 600 м
[Sc Ac trans]
-1.1 -1.5 97 -8 -7 1003.4 997.0 -2.0 0.0 0
06 14.06 СЗ 5 10 км 8/1 300 м
[Cu med, cong As op Ci sp]
+0.6 -0.4 93 -5 -3 1003.0 996.7
09 14.06 СЗ 5 10 км 3/1 300 м
[Cu med, cong Ci sp]
+1.2 +0.3 94 -5 -0 1002.5 996.2
12 14.06 СЗ 4 10 км 8/1 300 м
[Cu med, cong Ac lent Cc]
+1.7 -0.1 88 -3 -1 1002.0 995.7
15 14.06 СЗ 5 10 км слаб. ливневой снег 10/10 300 м
[Cb cap]
+1.0 +0.3 95 -5 -5 1000.6 994.3 +1.8 0.0
18 14.06 З 5 10 км слаб. ливневой дождь со снегом 10/10 300 м
[Cb cap]
+0.4 +0.4 100 -6 -6 998.6 992.3
21 14.06 З 5 4000 м слаб. ливневой снег 10/10 300 м
[Cb cap]
+0.3 +0.3 100 -6 -6 996.6 990.3
00 15.06 З 3 4000 м слаб. ливневой снег 10/10 300 м
[Cb cap]
0.0 0.0 100 -5 -5 995.5 989.2
03 15.06 СЗ 2 500 м слаб. ливневой снег {туман} туман ?/? +0.3 +0.3 100 -4 -4 995.4 -0.1 1 0
06 15.06 СЗ 2 <100 м туман {ливн. осадки, снег} ?/? +0.3 +0.3 100 -4 -4 996.1 989.8
09 15.06 СЗ 3 10 км {ливн. осадки, туман} 10/10 600 м
[Sc]
+0.7 +0.7 100 -4 -4 997.4 991.1
12 15.06 СЗ 4 10 км {ливн. осадки, туман} 9/9 300 м
[Cu Sc]
+1.1 +0.8 98 -4 -4 998.1 991.8
15 15.06 З 3 10 км в посл. час ливневой снег 9/9 300 м
[Cu Sc]
+0.4 +0.2 99 -4 -4 998.0 991.7 +1.7 0.3
18 15.06 ЮЗ 3 4000 м слаб. ливневой снег 9/9 300 м
[Cb cap]
+0.3 +0.3 100 -5 -5 997.4 991.1
21 15.06 ЮЗ 5 10 км {ливн. осадки} 9/0
[Ac trans]
-0.1 -0.1 100 -7 -7 995.8 989.5
00 16.06 Ю 8-11
{11}
4000 м слаб. ливневой снег 10/10 300 м
[Cb cap]
+0.1 +0.1 100 -8 -8 994.2 987.9
03 16.06 ЮЗ 7-10
{14}
4000 м в посл. час морось {ливн. осадки} 10/10 300 м
[St]
+1.4 +1.4 100 -6 -6 992.8 986.6 -0.8 0.3 0
06 16.06 ЮЗ 6
{10}
10 км слаб. ливневой дождь {морось} 10/10 300 м
[Cb cap]
+2.1 +1.8 98 -4 -4 992.5 986.3
09 16.06 Ю 8-11
{12}
10 км {ливн. осадки} 10/9 300 м
[Cu Sc As trans]
+3.0 +1.9 92 -4 -4 992.0 985.8
12 16.06 ЮЗ 7-11
{11}
10 км {ливн. осадки} 10/10 300 м
[Cu Sc]
+3.1 +2.2 94 -3 -3 991.4 985.2
15 16.06 З 6
{11}
10 км {ливн. осадки} 10/8 300 м
[Cu Sc As trans]
+2.0 +1.3 95 -4 -4 991.5 985.3 +4.0 0.0
18 16.06 ЮЗ 3 10 км слаб. ливневой снег 10/10 300 м
[Cb cap]
+0.5 +0.3 99 -4 -4 991.2 985.0
21 16.06 ЮЗ 5 10 км {ливн. осадки} 10/10 300 м
[Cu Sc]
+0.4 +0.4 100 -6 -6 989.8 983.6
00 17.06 ЮЗ 4 10 км {ливн. осадки} 10/8 300 м
[Sc As trans]
+1.0 +1.0 100 -5 -4 989.2 983.0
03 17.06 ЮЗ 5 10 км 9/8 300 м
[Cu Sc Ac trans]
+1.4 +1.0 97 -5 -4 988.7 982.5 +0.2 0.0 0
06 17.06 З 5 10 км {ливн. осадки} 9/8 300 м
[Cu Sc Ac trans]
+3.0 +0.6 84 -2 -2 988.9 982.7
09 17.06 З 7 10 км {ливн. осадки} 9/9 300 м
[Cu Sc]
+3.2 +0.6 83 -3 -3 990.0 983.8
12 17.06 З 8-12
{12}
10 км слаб. ливневой дождь 10/10 300 м
[Cb cap]
+2.2 +1.2 93 -5 -5 991.0 984.8
15 17.06 З 8-11
{13}
10 км {ливн. осадки} 9/6 300 м
[Cu med, cong Ac trans Ci fib]
+2.6 +0.8 88 -4 -4 992.1 985.9 +3.7 0.0
18 17.06 ЮЗ 7
{12}
10 км в посл. час ливневой дождь 9/8 300 м
[Sc Ac trans]
+1.0 +0.4 96 -6 -6 992.1 985.9
21 17.06 З 6
{11}
4000 м слаб. ливневой снег 10/6 300 м
[Cb cap Ac und]
-0.2 -0.3 99 -7 -7 991.6 985.3
00 18.06 ЮЗ 4 10 км {ливн. осадки} 9/4 300 м
[Cu hum Ac trans Ci fib]
-0.2 -0.4 99 -6 -6 991.8 985.6
03 18.06 ЮЗ 5 10 км 8/3 300 м
[Sc Ac trans Ci fib]
+1.6 -0.5 86 -4 -3 992.0 985.8 -0.4 0.0 0
06 18.06 З 3 2000 м слаб. ливневой снег 10/10 300 м
[Cb cap]
+0.6 +0.6 100 -4 -4 992.4 986.2
09 18.06 СЗ 2 500 м ливневой снег 10/8 300 м
[Cb cap Ac und]
+0.2 +0.2 100 -4 -3 993.7 987.4
12 18.06 СЗ 4 4000 м в посл. час туман {ливн. осадки} 10/10 300 м
[St]
-0.1 -0.1 100 -6 -6 995.1 988.8
15 18.06 С 6 10 км в посл. час зёрна 10/10 300 м
[St]
-0.4 -0.4 100 -7 -7 996.5 990.2 +1.8 2
18 18.06 С 4 10 км {морось} 9/9 300 м
[Sc]
-0.6 -0.9 98 -6 -6 997.5 991.2
21 18.06 С 5 10 км осадки на расстоянии {ливн. осадки} 9/9 300 м
[Sc]
-0.7 -1.4 95 -7 -7 998.2 991.9
00 19.06 С 3 10 км слаб. ливневой снег 10/9 300 м
[Cb cap Ac und]
-0.9 -0.9 100 -6 -6 999.0 992.7
03 19.06 С 4 10 км слаб. ливневой снег 10/10 300 м
[Cb cap]
-0.5 -1.5 93 -6 -6 999.8 993.5 -1.1 0.0 0
06 19.06 СЗ 3 10 км в посл. час ливневой снег 9/9 300 м
[Cu Sc]
+0.6 -0.7 91 -4 -3 1000.1 983.8
09 19.06 СЗ 3 10 км 10/8 600 м
[Sc Ac und]
+1.1 -1.0 86 -3 -3 1001.0 994.7

 

Местоположение метеостанции Амдерма (Ненецкий АО, Россия): широта 69.77 долгота 61.68 высота над уровнем моря 48 м.

В архиве по умолчанию представлена погода в Амдерме за последнюю неделю. Архивные данные за месяц целиком и за предыдущие месяцы, начиная с января 2011 года, Вы можете получить, выбрав интересующий диапазон дат из раскрывающегося списка и нажав кнопку "Ввод!".


*Определитесь, кто Вы:
робот инопланетянин человек

Внимание! Время в таблицах - всемирное. Для получения местного времени необходимо прибавить поправку, которая равна 3 ч.

Смотрите также архив погоды в соседних городах и на ближайших метеорологических станциях:

Погода на Мысе Белый Нос (Ненецкий АО, Россия) (60 км)
Погода в Имени Федорова (Ненецкий АО, Россия) (124 км)
Погода в Усть-Каре (Ненецкий АО, Россия) (139 км)
Погода в Варандее (Ненецкий АО, Россия) (179 км)
Погода в Марресале (Ямало-Ненецкий АО, Россия) (197 км)
Погода в Воркуте (Коми, Россия) (271 км)
Погода на Мысе Константиновском (Ненецкий АО, Россия) (279 км)
Погода в Хорей-Вере (Ненецкий АО, Россия) (300 км)
Погода в Елецкой (Коми, Россия) (318 км)
Погода в Ходоварихе (Ненецкий АО, Россия) (325 км)

Пояснения к столбцам:

Ветер - указаны скорость ветра в м/с - средняя за 10 мин, порывы в срок и между сроками (в фигурных скобках) и направление, откуда дует ветер: С - северный, СВ - северо-восточный, В - восточный, ЮВ - юго-восточный, Ю - южный, ЮЗ - юго-западный, З - западный, СЗ - северо-западный.
Видимость - горизонтальная дальность видимости в метрах или километрах. При видимости от 1 до 10 км при отсутствии осадков обычно наблюдается дымка, при ухудшении видимости до 1 км и менее - туман. В сухую погоду видимость может ухудшаться дымом, пылью или мглою.
Явления - указаны атмосферные явления, наблюдавшиеся в срок или в последний час перед сроком; фигурными скобками обозначены явления, наблюдавшиеся между сроками (за 1-3 часа до срока); квадратными скобками обозначены град или гололедные отложения с указанием их диаметра в мм.
Облачность - указаны через наклонную черту общая и нижняя облачность в баллах и высота нижней границы облаков в метрах; квадратными скобками обозначены формы облаков: Ci - перистые, Cs - перисто-слоистые, Cc - перисто-кучевые, Ac - высококучевые, As - высокослоистые, Sc - слоисто-кучевые, Ns - слоисто-дождевые, Cu - кучевые, Cb - кучево-дождевые. Подробнее классификацию облаков см. в Атласе облаков (PDF).
T - Температура воздуха - температура, измеренная на высоте 2 м над землей.
Td - Температура точки росы - температура, при понижении до которой содержащийся в воздухе водяной пар достигнет насыщения.
f - Относительная влажность воздуха - влажноcть воздуха, измеренная на высоте 2 м над землей.
Te - Эффективная температура - температура, которую ощущает одетый по сезону человек в тени. Характеристика душности погоды. При расчете учитывается влияние влажности воздуха и скорости ветра на теплоощущения человека.
Tes - Эффективная температура на солнце - температура, которую ощущает человек, с поправкой на солнечный нагрев. Характеристика знойности погоды. Зависит от высоты солнца над горизонтом, облачности и скорости ветра. Ночью, в пасмурную погоду, а также при ветре 12 м/с и более поправка равна нулю.
P - Атмосферное давление - приведенное к уровню моря атмосферное давление.
Po - Атмосферное давление - измеренное на уровне метеостанции атмосферное давление.
Tmin - Минимальная температура - минимум температуры воздуха на высоте 2 м над землей.
Tmax - Максимальная температура - максимум температуры воздуха на высоте 2 м над землей.
R - Количество осадков - Количество выпавших осадков за период времени, мм. При наведении курсора мыши на число - период времени, за который выпало указанное количество осадков.
R24 - Количество осадков - Количество выпавших осадков за 24 часа, мм.
S - Снежный покров - Высота снежного покрова, см. При наведении курсора мыши на число - состояние снежного покрова и степень покрытия местности в баллах.